Weather in Lipovka

Russia / Chuvash Republic     55°06′40″N   47°05′37″E
temp.,
°C
wind,
m/s
gust,
m/s
humid.,
%
clouds,
%
prec.,
mm/h
press.,
hPa
HPBL,
m
22 april, thu
thu2200:00+5s51394100 0.9 1018742
03:00+5s2793100 0.9 1020251
06:00+5sse2796100 0.0 1021272
09:00+6sse399440 0.0 1021417
12:00+12ssw696493 0.4 10211550
15:00+12sw5964100 1.3 10211168
18:00+11sw37705 0.3 1021236
21:00+6wnw118671 0.3 102310
23 april, fri
fri2300:00+5ssw11895 0.0 102310
03:00+4sse11880 0.0 102410
06:00+6sse12815 0.0 102448
09:00+12s23585 0.0 1024646
12:00+15s234392 0.0 10232068
15:00+15sse2343100 0.0 10212170
18:00+12ese3765100 0.1 1021307
21:00+8ese2786100 0.1 1021161
24 april, sat
sat2400:00+7ese2389100 0.0 101942
03:00+6e2490100 0.0 101783
06:00+7e2687100 0.0 1016190
09:00+11ese3564100 0.0 1014650
12:00+13sse3452100 0.0 10121456
15:00+15se344558 0.0 10091863
18:00+11se4966100 0.0 1008689
21:00+9sse51181100 0.3 1007700
25 april, sun
sun2500:00+7wsw5892100 2.6 1006745
03:00+4wsw51096100 3.5 1007821
06:00+4wsw4119011 0.2 1008638
09:00+8wsw610575 0.2 10091633
12:00+9wsw6105299 0.2 10102046
15:00+10wsw6114071 0.7 10112870
18:00+8wsw485197 0.1 10121048
21:00+4sw4117094 0.6 1013425
26 april, mon
mon2600:00+3sw410800 0.0 1014378
03:00+1sw3108447 0.0 1014327
06:00+2sw39835 0.0 1015359
09:00+7wsw47478 0.0 10151381
12:00+9sw494784 0.0 10141984
15:00+6w4777100 0.4 1012846
18:00+5sw3789100 3.8 1012663
21:00+3ssw389697 4.4 1011271